When you browse on this site, cookies collect data to enhance your experience and personalize the content and advertising you see.
Visit our Privacy Policy to learn more. By continuing to use the site, you agree to this use of cookies and data.
  • In Österreich
  • Länderverzeichnis
  • Für 7 Tage
  • Wassertemperatur
  • Satellitenkarten
  • Wetterkarte
  • News
  • Widgets
  • user-avatar
    Anmelden

    Stündliche Wetter Bromierzyk

    Heute, 21 März, Donnerstag

    Zeit Temperatur Niederschläge Wind Luftdruck Luftfeuchtigkeit
    00:00 +5°C° 0 mm 5 m/S 767 mmHg 59%
    01:00 +6°C° 0 mm 5 m/S 767 mmHg 59%
    02:00 +6°C° 0 mm 5 m/S 766 mmHg 63%
    03:00 +6°C° 0 mm 5 m/S 766 mmHg 66%
    04:00 +6°C° 0 mm 5 m/S 766 mmHg 70%
    05:00 +6°C° 0 mm 4 m/S 766 mmHg 73%
    06:00 +6°C° 0 mm 4 m/S 767 mmHg 77%
    07:00 +6°C° 0 mm 4 m/S 767 mmHg 80%
    08:00 +6°C° 0 mm 4 m/S 767 mmHg 80%
    09:00 +7°C° 0 mm 4 m/S 767 mmHg 79%
    10:00 +8°C° 0 mm 4 m/S 767 mmHg 78%
    11:00 +8°C° 0 mm 4 m/S 767 mmHg 76%
    12:00 +8°C° 0 mm 4 m/S 767 mmHg 73%
    13:00 +9°C° 0 mm 5 m/S 767 mmHg 70%
    14:00 +9°C° 0 mm 5 m/S 766 mmHg 70%
    15:00 +10°C° 0 mm 5 m/S 766 mmHg 69%
    16:00 +10°C° 0 mm 5 m/S 766 mmHg 69%
    17:00 +9°C° 0 mm 5 m/S 766 mmHg 73%
    18:00 +9°C° 0 mm 5 m/S 766 mmHg 77%
    19:00 +8°C° 0 mm 4 m/S 766 mmHg 81%
    20:00 +8°C° 0 mm 4 m/S 766 mmHg 82%
    21:00 +8°C° 0 mm 5 m/S 766 mmHg 84%
    22:00 +8°C° 0 mm 5 m/S 766 mmHg 85%
    23:00 +8°C° 0 mm 4 m/S 766 mmHg 86%

    Morgen, 22 März, Freitag

    Zeit Temperatur Niederschläge Wind Luftdruck Luftfeuchtigkeit
    00:00 +10°C° 0 mm 4 m/S 766 mmHg 87%
    01:00 +10°C° 0 mm 4 m/S 766 mmHg 88%
    02:00 +8°C° 0 mm 4 m/S 766 mmHg 89%
    03:00 +8°C° 0 mm 4 m/S 766 mmHg 90%
    04:00 +8°C° 0 mm 4 m/S 765 mmHg 91%
    05:00 +8°C° 0 mm 4 m/S 766 mmHg 91%
    06:00 +8°C° 0 mm 4 m/S 766 mmHg 91%
    07:00 +8°C° 0 mm 4 m/S 766 mmHg 92%
    08:00 +10°C° 0 mm 4 m/S 766 mmHg 88%
    09:00 +10°C° 0 mm 3 m/S 766 mmHg 83%
    10:00 +11°C° 0 mm 3 m/S 767 mmHg 79%
    11:00 +11°C° 0 mm 3 m/S 767 mmHg 78%
    12:00 +12°C° 0 mm 2 m/S 767 mmHg 76%
    13:00 +13°C° 0 mm 2 m/S 767 mmHg 74%
    14:00 +13°C° 0 mm 2 m/S 767 mmHg 71%
    15:00 +14°C° 0 mm 2 m/S 766 mmHg 67%
    16:00 +14°C° 0 mm 2 m/S 766 mmHg 64%
    17:00 +13°C° 0 mm 1 m/S 766 mmHg 69%
    18:00 +12°C° 0 mm 1 m/S 766 mmHg 73%
    19:00 +10°C° 0 mm 0 m/S 766 mmHg 78%
    20:00 +9°C° 0 mm 0 m/S 766 mmHg 81%
    21:00 +9°C° 0 mm 0 m/S 766 mmHg 83%
    22:00 +9°C° 0 mm 1 m/S 766 mmHg 85%
    23:00 +9°C° 0 mm 1 m/S 766 mmHg 86%

    übermorgen, 23 März, Samstag

    Zeit Temperatur Niederschläge Wind Luftdruck Luftfeuchtigkeit
    00:00 +8°C° 0 mm 1 m/S 765 mmHg 87%
    01:00 +8°C° 0 mm 1 m/S 765 mmHg 89%
    02:00 +8°C° 0 mm 1 m/S 765 mmHg 90%
    03:00 +8°C° 0 mm 1 m/S 765 mmHg 91%
    04:00 +7°C° 0 mm 1 m/S 764 mmHg 92%
    05:00 +8°C° 0 mm 1 m/S 764 mmHg 92%
    06:00 +8°C° 0 mm 1 m/S 764 mmHg 91%
    07:00 +7°C° 0 mm 2 m/S 764 mmHg 91%
    08:00 +9°C° 0 mm 2 m/S 763 mmHg 84%
    09:00 +12°C° 0 mm 2 m/S 763 mmHg 77%
    10:00 +14°C° 0 mm 2 m/S 763 mmHg 70%
    11:00 +15°C° 0 mm 2 m/S 763 mmHg 65%
    12:00 +16°C° 0 mm 3 m/S 762 mmHg 61%
    13:00 +18°C° 0 mm 3 m/S 762 mmHg 56%
    14:00 +18°C° 0 mm 3 m/S 761 mmHg 56%
    15:00 +18°C° 0 mm 3 m/S 761 mmHg 56%
    16:00 +18°C° 0 mm 3 m/S 760 mmHg 56%
    17:00 +17°C° 0 mm 3 m/S 761 mmHg 61%
    18:00 +14°C° 0 mm 3 m/S 761 mmHg 67%
    19:00 +14°C° 0 mm 2 m/S 761 mmHg 72%
    20:00 +12°C° 0 mm 3 m/S 761 mmHg 76%
    21:00 +12°C° 0 mm 3 m/S 761 mmHg 80%
    22:00 +11°C° 0 mm 4 m/S 762 mmHg 84%
    23:00 +10°C° 0 mm 4 m/S 762 mmHg 84%

    24 März, Sonntag

    Zeit Temperatur Niederschläge Wind Luftdruck Luftfeuchtigkeit
    00:00 +8°C° 0 mm 4 m/S 762 mmHg 84%
    01:00 +7°C° 0 mm 4 m/S 762 mmHg 84%
    02:00 +7°C° 0 mm 3 m/S 762 mmHg 80%
    03:00 +5°C° 0 mm 3 m/S 762 mmHg 75%
    04:00 +5°C° 0 mm 3 m/S 763 mmHg 71%
    05:00 +4°C° 0 mm 3 m/S 763 mmHg 71%
    06:00 +4°C° 0 mm 3 m/S 763 mmHg 70%
    07:00 +4°C° 0 mm 3 m/S 764 mmHg 70%
    08:00 +5°C° 0 mm 3 m/S 764 mmHg 65%
    09:00 +8°C° 0 mm 2 m/S 764 mmHg 60%
    10:00 +9°C° 0 mm 2 m/S 764 mmHg 56%
    11:00 +10°C° 0 mm 2 m/S 763 mmHg 50%
    12:00 +12°C° 0 mm 1 m/S 763 mmHg 45%
    13:00 +13°C° 0 mm 1 m/S 762 mmHg 40%
    14:00 +13°C° 0 mm 1 m/S 762 mmHg 39%
    15:00 +13°C° 0 mm 1 m/S 761 mmHg 38%
    16:00 +13°C° 0 mm 1 m/S 761 mmHg 37%
    17:00 +11°C° 0 mm 1 m/S 761 mmHg 41%
    18:00 +9°C° 0 mm 2 m/S 761 mmHg 45%
    19:00 +8°C° 0 mm 2 m/S 760 mmHg 49%
    20:00 +8°C° 0 mm 1 m/S 760 mmHg 51%
    21:00 +8°C° 0 mm 1 m/S 760 mmHg 53%
    22:00 +8°C° 0 mm 1 m/S 759 mmHg 54%
    23:00 +8°C° 0 mm 1 m/S 759 mmHg 55%

    25 März, Montag

    Zeit Temperatur Niederschläge Wind Luftdruck Luftfeuchtigkeit
    00:00 +8°C° 0 mm 1 m/S 758 mmHg 57%
    01:00 +8°C° 0 mm 1 m/S 758 mmHg 58%
    02:00 +7°C° 0 mm 1 m/S 757 mmHg 59%
    03:00 +7°C° 0 mm 1 m/S 757 mmHg 61%
    04:00 +7°C° 0 mm 1 m/S 756 mmHg 63%
    05:00 +7°C° 0 mm 1 m/S 756 mmHg 63%
    06:00 +6°C° 0 mm 2 m/S 756 mmHg 63%
    07:00 +6°C° 0 mm 2 m/S 756 mmHg 64%
    08:00 +7°C° 0 mm 3 m/S 756 mmHg 57%
    09:00 +7°C° 0 mm 4 m/S 755 mmHg 51%
    10:00 +8°C° 0 mm 5 m/S 755 mmHg 45%
    11:00 +9°C° 0 mm 5 m/S 755 mmHg 44%
    12:00 +9°C° 0 mm 6 m/S 754 mmHg 44%
    13:00 +9°C° 0 mm 6 m/S 753 mmHg 44%
    14:00 +9°C° 0 mm 7 m/S 753 mmHg 44%
    15:00 +9°C° 0 mm 7 m/S 752 mmHg 44%
    16:00 +9°C° 0 mm 7 m/S 752 mmHg 45%
    17:00 +8°C° 0.3 mm 7 m/S 752 mmHg 53%
    18:00 +6°C° 0.3 mm 7 m/S 751 mmHg 61%
    19:00 +4°C° 0.3 mm 7 m/S 751 mmHg 70%
    20:00 +4°C° 0.1 mm 7 m/S 751 mmHg 68%
    21:00 +3°C° 0.1 mm 6 m/S 751 mmHg 67%
    22:00 +3°C° 0.1 mm 6 m/S 751 mmHg 66%
    23:00 +2°C° 0 mm 6 m/S 751 mmHg 68%

    26 März, Dienstag

    Zeit Temperatur Niederschläge Wind Luftdruck Luftfeuchtigkeit
    00:00 +1°C° 0 mm 6 m/S 750 mmHg 70%
    01:00 0°C° 0 mm 7 m/S 750 mmHg 73%
    02:00 0°C° 0 mm 8 m/S 749 mmHg 72%
    03:00 0°C° 0 mm 8 m/S 749 mmHg 72%
    04:00 0°C° 0 mm 9 m/S 748 mmHg 72%
    05:00 0°C° 0.1 mm 9 m/S 748 mmHg 72%
    06:00 0°C° 0.1 mm 9 m/S 748 mmHg 72%
    07:00 0°C° 0.1 mm 8 m/S 748 mmHg 73%
    08:00 +1°C° 0.3 mm 8 m/S 748 mmHg 70%
    09:00 +1°C° 0.3 mm 8 m/S 749 mmHg 68%
    10:00 +2°C° 0.3 mm 8 m/S 749 mmHg 66%
    11:00 +2°C° 0.4 mm 8 m/S 750 mmHg 64%
    12:00 +2°C° 0.4 mm 9 m/S 751 mmHg 62%
    13:00 +2°C° 0.4 mm 9 m/S 751 mmHg 60%
    14:00 +1°C° 0.1 mm 9 m/S 752 mmHg 63%
    15:00 +1°C° 0.1 mm 9 m/S 752 mmHg 67%
    16:00 0°C° 0.1 mm 9 m/S 753 mmHg 70%
    17:00 0°C° 0.1 mm 10 m/S 754 mmHg 73%
    18:00 -2°C° 0.1 mm 10 m/S 754 mmHg 75%
    19:00 -3°C° 0.1 mm 10 m/S 755 mmHg 78%
    20:00 -3°C° 0.2 mm 10 m/S 755 mmHg 77%
    21:00 -3°C° 0.2 mm 10 m/S 755 mmHg 77%
    22:00 -3°C° 0.2 mm 10 m/S 755 mmHg 77%
    23:00 -3°C° 0.2 mm 10 m/S 756 mmHg 78%
    Mehr zeigen